www.pogodaiklimat.ru

ПОГОДА в Бишопе, CA

  • Прогноз погоды в Бишопе
  • Монитор погоды в Бишопе
  • Климат в Бишопе

АРХИВ ПОГОДЫ в Бишопе

Время (UTC), дата Ветер
(напр.,м/с)
 
Видим.   Явления Облачность Т
(С)
Тd
(С)
f
(%)
Тe
(С)
Тes
(С)
Комфортность

P
(гПа)

Po
(гПа)
Тmin
(С)
Tmax
(С)
R
(мм)
SD
(см)
23:56 24.03 Ю  16 км    ясно  +16.1  -11.7  14  +15  +16    1019.7  877.7         
00:56 25.03 ЮВ  16 км    ясно  +14.4  -9.4  18  +13  +13    1020.3  878.0         
01:56 25.03 Ю  16 км    ясно  +11.7  -8.3  24  +10  +10    1020.5  878.3         
02:56 25.03 Ю  16 км    ясно  +10.0  -8.9  25  +8  +8    1020.9  878.8         
03:56 25.03 Ю  16 км    ясно  +10.6  -9.4  24  +8  +8    1020.7  879.1         
04:56 25.03 Ю  16 км    ясно  +10.0  -8.9  25  +7  +7    1020.7  879.1  +9.4  +16.7     
05:56 25.03 Ю  16 км    ясно  +9.4  -8.3  28  +6  +6    1020.2  878.8         
06:56 25.03 С  16 км    ясно  +6.1  -7.8  36  +3  +3    1020.6  878.8         
07:56 25.03 СЗ  16 км    ясно  +3.3  -6.7  48  -1  -1    1020.6  878.8         
08:56 25.03 С  16 км    ясно  +2.2  -7.2  50  -2  -2    1020.4  878.8         
09:56 25.03 СЗ  16 км    ясно  +0.6  -6.7  58  -5  -5    1020.2  878.5         
10:56 25.03 С  16 км    ясно  -0.6  -7.2  61  -3  -3    1020.2  878.3  -0.6  +10.0     
11:56 25.03 С  16 км    ясно  -1.7  -6.7  69  -7  -7    1020.3  878.3         
12:56 25.03 нст  16 км    ясно  -1.7  -6.7  69  -6  -6    1020.6  878.3         
13:56 25.03 СЗ  16 км    ясно  +2.2  -5.0  59  -1  -1    1020.6  878.3         
14:56 25.03 С  16 км    ясно  +7.2  -3.9  45  +5  +6    1020.3  878.5         
15:56 25.03 нст  16 км    ясно  +11.7  -3.9  33  +11  +15    1019.5  878.3         
16:56 25.03 Ю  9
{13} 
16 км    ясно  +14.4  -5.6  25  +12  +12    1018.5  877.7  -2.2  +15.0     
17:56 25.03 Ю  12
{16} 
16 км    ясно  +16.7  -5.6  21  +15  +15    1017.0  876.5         
18:56 25.03 Ю  10
{13} 
16 км    ясно  +17.8  -5.6  20  +16  +17    1015.8  875.3         
19:56 25.03 Ю  9
{13} 
16 км    ясно  +19.4  -5.6  18  +18  +18    1015.3  874.8         
20:56 25.03 ЮВ  9
{11} 
16 км    ясно  +20.6  -6.7  15  +19  +19    1014.2  873.9         
21:56 25.03 Ю  7
{12} 
16 км    ясно  +21.7  -9.4  12  +20  +22    1013.4  873.0         
22:56 25.03 ЮВ  8
{12} 
16 км    ясно  +21.1  -9.4  12  +20  +20    1012.9  872.4  +14.4  +21.7     
23:56 25.03 ЮВ  8
{13} 
16 км    ясно  +19.4  -8.3  15  +18  +19    1013.0  872.1         
00:56 26.03 ЮВ  16 км    ясно  +17.2  -7.2  18  +16  +16    1013.4  872.4         
01:56 26.03 ЮВ  8
{13} 
16 км    ясно  +16.1  -7.2  19  +14  +14    1013.4  872.7         
02:56 26.03 ЮВ  7
{13} 
16 км    ясно  +16.1  -8.9  17  +15  +15    1013.3  873.0         
03:56 26.03 ЮВ  9
{14} 
16 км    ясно  +15.6  -8.9  18  +14  +14    1012.6  873.0         
04:56 26.03 Ю  16 км    ясно  +13.9  -7.8  21  +12  +12    1012.4  873.0  +13.3  +21.1     
05:56 26.03 Ю  16 км    ясно  +12.2  -7.8  24  +10  +10    1012.0  872.7         
06:56 26.03 Ю  16 км    ясно  +10.6  -7.8  27  +8  +8    1011.7  872.4         
07:56 26.03 ЮВ  16 км    ясно  +10.0  -7.8  28  +7  +7    1011.5  872.1         
08:56 26.03 нст  16 км    ясно  +6.7  -7.8  35  +6  +6    1011.6  872.1         
09:56 26.03 С  16 км    ясно  +3.9  -6.7  46  +1  +1    1011.7  872.1         
10:56 26.03 С  16 км    ясно  +1.7  -6.7  54  -2  -2    1011.9  871.8  +1.7  +14.4     
11:56 26.03 СЗ  16 км    ясно  +1.1  -6.7  56  -3  -3    1012.7  872.4         
12:56 26.03 С  16 км    ясно  +1.1  -6.7  56  -2  -2    1013.1  872.4         
13:56 26.03 С  16 км    ясно  +3.9  -5.0  52  +1  +1    1013.3  873.0         
14:56 26.03 С  16 км    ясно  +10.6  -6.7  29  +9  +10    1012.9  873.0         
15:56 26.03   16 км    ясно  +13.3  -7.2  23  +13  +19    1012.3  872.7         
16:56 26.03 нст  16 км    ясно  +16.1  -7.8  19  +17  +25    1012.0  872.7  0.0  +16.7     
17:56 26.03 Ю  16 км    ясно  +18.3  -7.8  16  +18  +27    1011.3  872.1         
18:56 26.03 Ю  5
{10} 
16 км    ясно  +20.0  -8.9  13  +19  +24    1010.3  871.3         
19:56 26.03 Ю  7
{10} 
16 км    ясно  +21.7  -8.9  12  +20  +23    1008.9  870.4         
20:56 26.03 Ю  6
{10} 
16 км    ясно  +22.8  -8.3  12  +21  +25  комфорт  1008.1  869.5         
21:56 26.03 ЮВ  16 км    ясно  +22.8  -10.6  10  +20  +26    1007.7  868.6         
22:56 26.03 Ю  9
{12} 
16 км    ясно  +22.8  -11.7  +20  +20    1007.4  868.4  +15.6  +23.3     

 

Местоположение метеостанции Bishop Airport: широта 37.3711 долгота -118.3581 высота над уровнем моря 1256 м.

В архиве по умолчанию представлена погода в Бишопе за последние 1-2 суток. Обновление информации о фактической погоде в базе происходит ежечасно! Архивные данные за месяц целиком и за предыдущие месяцы Вы можете получить, выбрав интересующий диапазон дат из раскрывающегося списка и нажав кнопку "Ввод!".

Внимание! Архив погоды МЕТАР в базе сайта хранится не более 60 дней. Нет смысла пытаться выбрать более раннюю дату.

Внимание! Время в таблицах - всемирное. Для получения местного времени необходимо прибавить поправку, которая в Бишопе равна -8 ч.

Ветер - указаны скорость ветра в м/с и направление, откуда дует ветер: С - северный, СВ - северо-восточный, В - восточный, ЮВ - юго-восточный, Ю - южный, ЮЗ - юго-западный, З - западный, СЗ - северо-западный.
Видимость - горизонтальная дальность видимости в метрах или километрах. При видимости от 1 до 10 км при отсутствии осадков обычно наблюдается дымка, при ухудшении видимости до 1 км и менее - туман. В сухую погоду видимость может ухудшаться дымом, пылью или мглою.
Атмосферные явления - указаны явления, наблюдавшиеся в указанный момент времени.
Облачность - указаны через наклонную черту верхняя и нижняя облачность в баллах и высота нижней границы облаков в метрах. Внимание: облачность, как и прочие метеорологические величины в США измеряются автоматическими метеостанциями. Указанные значения в баллах носят условный характер и показывают процент времени, в течение которого, в среднем, лазерный луч высотомера отражался от облаков обратно.
T - Температура воздуха - температура, измеренная на высоте 2 м над землей.
Td - Температура точки росы - температура, при понижении до которой содержащийся в воздухе водяной пар достигнет насыщения.
f - Относительная влажность воздуха - влажноcть воздуха, измеренная на высоте 2 м над землей.
Te - Эффективная температура - температура, которую ощущает одетый по сезону человек в тени. Характеристика душности погоды. При расчете учитывается влияние влажности воздуха и скорости ветра на теплоощущения человека.
Tes - Эффективная температура на солнце - температура, которую ощущает человек, с поправкой на солнечный нагрев. Характеристика знойности погоды. Зависит от высоты солнца над горизонтом, облачности и скорости ветра. Ночью, в пасмурную погоду, а также при ветре 12 м/с и более поправка равна нулю.
P - Атмосферное давление - приведенное к уровню моря атмосферное давление.
Po - Атмосферное давление - измеренное на уровне метеостанции атмосферное давление.
Tmin - Минимальная температура - минимум температуры воздуха на высоте 2 м над землей.
Tmax - Максимальная температура - максимум температуры воздуха на высоте 2 м над землей.
R - Количество осадков - Количество выпавших осадков за 3 или 6 часов, мм.
SD - Снежный покров - Высота снежного покрова, см.